Weather Roundup
Issued by NWS

Home | Current Version | Previous Version | Text Only | Print | Product List | Glossary On
Versions: 1 2 3 4 5 6 7 8 9 10 11 12 13 14 15 16 17 18 19 20 21 22 23 24 25 26 27 28 29 30 31 32 33 34 35 36 37 38 39 40 41 42 43 44 45 46 47 48 49 50
000
NZUS93 KARX 241759
HRRWXR

CURRENT HOURLY OBSERVATIONS ACROSS
MUCH OF THE UPPER MISSISSIPPI VALLEY
NATIONAL WEATHER SERVICE LA CROSSE WI
100 PM CDT MON JUL 24 2017


...SOUTHEAST MINNESOTA...


CITY           SKY/WX    TMP DP  RH WIND       PRES   REMARKS
ROCHESTER      CLOUDY    69  60  73 CALM      30.08S
ROCHESTER/MAYO MOCLDY    71  57  60 CALM      30.08S
WINONA         PTSUNNY   70  57  64 SE9       30.09S
AUSTIN         CLOUDY    72  57  60 SE5       30.07S
ALBERT LEA     CLOUDY    72  61  68 SE8       30.06F
DODGE CENTER   CLOUDY    70  57  64 E7        30.08S
PRESTON        MOSUNNY   69  56  62 SE5       30.09S
OWATONNA       CLOUDY    72  61  68 SE6       30.07S
FARIBAULT      CLOUDY    72  61  68 E6        30.07S
$$

...ELSEWHERE IN MINNESOTA...


CITY           SKY/WX    TMP DP  RH WIND       PRES   REMARKS
MINNEAPOLIS    PTSUNNY   73  59  61 SE9       30.06S
INTNL FALLS    SUNNY     76  53  44 S8        30.02F
DULUTH         MOSUNNY   70  54  56 SE9       30.08F
RED WING       SUNNY     75  55  50 SE7       30.06R
REDWOOD FALLS  MOSUNNY   75  60  59 SE8       30.01F
MANKATO        CLOUDY    71  61  70 SE7       30.06S
WORTHINGTON    NOT AVBL
FAIRMONT       MOSUNNY   73  62  68 SE8       30.04F
$$

...SOUTHWEST WISCONSIN...


CITY           SKY/WX    TMP DP  RH WIND       PRES   REMARKS
LA CROSSE      PTSUNNY   72  58  61 SE7       30.08S
PRAIRIE DU CHI CLOUDY    72  56  57 SE3       30.06S
BOSCOBEL       CLOUDY    73  58  59 VRB6      30.07F
LONE ROCK      NOT AVBL
PLATTEVILLE    NOT AVBL
FORT MC COY    CLOUDY    68  57  66 CALM      30.09F
MAUSTON-NEW LI MOCLDY    70  58  63 SE3       30.08F
VIROQUA        CLOUDY    67  60  76 CALM      30.10S
WIS DELLS      CLOUDY    71  55  57 E6        30.09S
$$

...ELSEWHERE IN WISCONSIN...


CITY           SKY/WX    TMP DP  RH WIND       PRES   REMARKS
MILWAUKEE      MOSUNNY   70  60  70 NE15      30.07S
MADISON        PTSUNNY   71  57  61 E7        30.07F
GREEN BAY      SUNNY     71  58  63 NE10      30.09F
EAU CLAIRE     PTSUNNY   70  56  61 E7        30.07F
BLACK RVR FLS  MOCLDY    73  55  52 S5        30.08F
MEDFORD        SUNNY     69  53  58 SE3       30.10S
WAUSAU         SUNNY     72  53  51 MISG      30.08F
WIS RAPIDS     MOSUNNY   73  56  54 SE8       30.10F
MARSHFIELD     MOSUNNY   70  55  59 E6        30.09S
RICE LAKE      SUNNY     67  55  66 SE3       30.11S
$$

...NORTHEAST IOWA...


CITY           SKY/WX    TMP DP  RH WIND       PRES   REMARKS
WATERLOO       CLOUDY    73  63  70 NE5       30.05S
DUBUQUE        CLOUDY    70  59  68 NE7       30.07F
DECORAH        CLOUDY    66  59  77 E5        30.09R
MASON CITY     CLOUDY    73  61  65 SE10      30.07F
CHARLES CITY   CLOUDY    73  61  64 VRB6      30.07S
OELWEIN          N/A    N/A N/A N/A MISG        N/A
$$

...ELSEWHERE IN IOWA...


CITY           SKY/WX    TMP DP  RH WIND       PRES   REMARKS
DES MOINES     MOSUNNY   80  59  48 VRB3      30.01F
IOWA CITY      PTSUNNY   76  64  66 E6        30.05F
FORT DODGE     SUNNY     77  63  61 E8G90     30.05S
MARSHALLTOWN   PTSUNNY   75  63  66 VRB7      30.05S
CEDAR RAPIDS   PTSUNNY   74  65  73 E8        30.04F
$$

...NORTHERN ILLINOIS...


CITY           SKY/WX    TMP DP  RH WIND       PRES   REMARKS
CHICAGO-OHARE  PTSUNNY   72  56  57 NE13      30.06R
CHICAGO-MIDWAY PTSUNNY   72  57  59 NE12      30.05R
MOLINE         CLOUDY    73  64  73 VRB5      30.04S
ROCKFORD       PTSUNNY   73  58  59 E10       30.08R
PEORIA         CLOUDY    73  66  78 VRB6      30.03S
$$

NOTE: "FAIR" INDICATES FEW OR NO CLOUDS BELOW 12,000 FEET WITH NO
SIGNIFICANT WEATHER AND/OR OBSTRUCTIONS TO VISIBILITY. WIND
SPEEDS ARE IN MILES-PER-HOUR.




USA.gov is the U.S. government's official web portal to all federal, state and local government web resources and services.